ヴォルフ-ハリントン彗星

43P/Wolf-Harrington (2016)

English version
Home page
Updated on February 7, 2017

---------------------------------------------------------------------

・ プロフィール

・ 写真集

・ 軌道要素

Epoch 2016 July 31.0 TT = JDT 2457600.5
T 2016 Aug. 19.69596 TT                                 MPCW
q   1.3579481            (2000.0)            P               Q
n   0.16080833     Peri.  191.59819     +0.15627099     -0.95337097
a   3.3491173      Node   249.83331     +0.92678535     +0.23192254
e   0.5945355      Incl.   15.96528     +0.34153813     -0.19312101
P   6.13
From 2444 observations 1997 July 18-2016 Aug. 13, mean residual 0".7.
     Nongravitational parameters A1 = +0.19, A2 = -0.0097.

・ 星図

・ 光度変化

        m1 = 8.0 + 5 logΔ + 19.0 log r

---------------------------------------------------------------------

軌道要素はM.P.E.C. 2016-Q04に掲載されたものです。
星図はステラナビゲータ Ver.8 (アストロアーツ) で作成したものです。
光度グラフはComet for Windowsで作成したものです。

---------------------------------------------------------------------

Copyright(C) Seiichi Yoshida (comet@aerith.net). All rights reserved.